[[{"header":{"parameterUnit":"m.s-1","parameterCategory":1,"la1":30.2991,"la2":30.254,"lo1":-89.0895,"lo2":-89.0444,"dy":0.0017,"dx":0.0017,"nx":28,"ny":28,"refTime":"2025-04-19T21:00:00:Z","depth":0,"parameterNumber":2,"parameterNumberName":"U-component_of_WINDS"},"data":[0,0,0,0,0,0,0,0,0,0,0,0,0,0,0,0,0,0,0,0,0,0,0,0,0,0,0,0,0,0,0,0,0,0,0,0,0,0,0,0,0,0,0,0,0,0,0,0,0,0,0,0,0,0,0,0,0,0,-5.357,-5.357,0,-5.3628,-5.3629,-5.3629,-5.3565,-5.3563,-5.356,-5.3558,-5.3615,-5.3618,-5.3622,0,0,0,0,0,0,0,0,0,0,0,0,0,-5.34,-5.3404,-5.357,-5.357,-5.3571,-5.3628,-5.3629,-5.3629,-5.3566,-5.3563,-5.356,-5.3557,-5.3613,-5.3618,-5.3622,0,0,0,0,0,0,0,0,0,0,0,0,0,-5.3468,-5.3405,-5.3569,-5.3546,-5.3545,-5.3628,-5.3629,-5.363,-5.3566,-5.3563,-5.3559,-5.3556,-5.3612,-5.3617,-5.3623,-5.3731,0,0,-5.364,-5.3643,0,0,0,0,0,0,0,0,-5.3464,-5.3474,-5.3549,-5.3548,-5.3546,-5.3586,-5.3589,-5.3663,-5.3567,-5.3558,-5.3558,-5.3554,-5.3608,-5.3613,-5.3632,-5.3733,-5.3736,-5.3641,-5.3644,-5.3647,-5.3648,0,0,0,0,0,0,0,-5.3459,-5.3471,-5.3592,-5.355,-5.3549,-5.3532,-5.3537,-5.3603,-5.3602,-5.3559,-5.3554,-5.3562,-5.3606,-5.3627,-5.3633,-5.3736,-5.3641,-5.3646,-5.3649,-5.3651,-5.3927,-5.393,0,0,0,0,0,0,-5.3458,-5.3467,-5.3591,-5.3594,-5.3495,-5.3538,-5.3544,-5.3577,-5.3602,-5.3602,-5.3565,-5.3559,-5.3619,-5.3627,-5.3635,-5.376,-5.3646,-5.3652,-5.3655,-5.3923,-5.3928,-5.3932,0,0,0,0,0,0,-5.3454,-5.3469,-5.3588,-5.353,-5.3544,-5.3545,-5.3582,-5.358,-5.36,-5.3607,-5.3606,-5.3587,-5.3617,-5.3627,-5.3707,-5.3762,-5.3654,-5.3659,-5.3918,-5.3924,-5.393,-5.4014,0,0,0,0,0,0,-5.345,-5.3468,-5.351,-5.3531,-5.3547,-5.3661,-5.3585,-5.3584,-5.3611,-5.3603,-5.3626,-5.3627,-5.3614,-5.3699,-5.3713,-5.3767,-5.3664,-5.3913,-5.3921,-5.3928,-5.4006,-5.4022,-5.4035,0,0,0,0,0,-5.3444,-5.3531,-5.3512,-5.3528,-5.3599,-5.3664,-5.3673,-5.3658,-5.3615,-5.3656,-5.366,-5.3626,-5.3754,-5.3708,-5.3723,-5.378,-5.391,-5.3919,-5.3927,-5.4,-5.4019,-5.4035,0,0,0,0,0,0,-5.3515,-5.3533,-5.3513,-5.361,-5.3636,-5.3653,-5.3704,-5.3679,-5.3717,-5.3708,-5.3687,-5.3693,-5.3777,-5.3787,-5.3735,-5.3885,-5.3825,-5.3837,-5.3875,-5.3893,-5.3907,-5.3902,-5.3669,0,0,0,0,0,-5.3542,-5.3594,-5.3607,-5.3691,-5.3706,-5.3703,-5.3731,-5.3717,-5.3743,-5.3753,-5.3763,-5.3788,-5.3834,-5.3865,-5.3907,-5.4009,-5.4011,-5.4055,-5.407,-5.4082,-5.4091,-5.4144,-5.4163,-5.3961,-5.3961,-5.3961,0,0,-5.3598,-5.3614,-5.3648,-5.3706,-5.3724,-5.3777,-5.3713,-5.3772,-5.381,-5.3762,-5.3837,-5.3846,-5.3873,-5.3964,-5.4004,-5.3974,-5.4149,-5.4093,-5.4103,-5.4106,-5.4155,-5.4174,-5.4191,-5.3967,-5.3966,-5.3965,0,0,-5.3726,-5.3745,-5.3816,-5.3837,-5.3866,-5.3864,-5.3882,-5.3903,-5.3907,-5.3984,-5.3948,-5.3993,-5.4073,-5.4093,-5.4114,-5.4252,-5.422,-5.4266,-5.4341,-5.4393,-5.4408,-5.4422,-5.4469,-5.4486,-5.4277,-5.4277,-5.4277,0,-5.3791,-5.3871,-5.3856,-5.3918,-5.3943,-5.3904,-5.3974,-5.3995,-5.4037,-5.4055,-5.4021,-5.412,-5.4136,-5.423,-5.4263,-5.4283,-5.43,-5.4262,-5.4408,-5.4421,-5.4434,-5.4478,-5.4496,-5.4282,-5.4282,-5.4281,-5.4281,0,-5.3948,-5.4004,-5.4058,-5.41,-5.4132,-5.4198,-5.4192,-5.4226,-5.4211,-5.4212,-5.4289,-5.4307,-5.4352,-5.4374,-5.4359,-5.4466,-5.4446,-5.4411,-5.435,-5.4459,-5.4499,-5.4516,-5.429,-5.4288,-5.4286,-5.4285,0,0,-5.412,-5.4154,-5.4174,-5.4192,-5.4222,-5.4264,-5.4329,-5.4374,-5.4402,-5.4433,-5.4485,-5.4554,-5.4522,-5.4545,-5.4533,-5.4578,-5.4683,-5.4537,-5.4537,-5.4561,-5.4798,-5.4822,-5.4842,-5.4664,-5.4667,-5.467,-5.4795,0,-5.4246,-5.4358,-5.4347,-5.4453,-5.4503,-5.4467,-5.4523,-5.4547,-5.455,-5.4592,-5.4596,-5.4644,-5.4599,-5.4613,-5.4657,-5.4661,-5.473,-5.4652,-5.4709,-5.4711,-5.47,-5.4864,-5.4889,-5.5007,-5.4811,-5.4814,-5.4816,0,-5.4409,-5.4446,-5.4557,-5.4579,-5.4599,-5.465,-5.4689,-5.4731,-5.4758,-5.4757,-5.4784,-5.4764,-5.4827,-5.4767,-5.4853,-5.48,-5.4823,-5.4829,-5.4833,-5.4835,-5.4768,-5.4867,-5.5044,-5.5061,-5.4842,-5.484,-5.4838,0,-5.4519,-5.4597,-5.4673,-5.469,-5.4719,-5.4755,-5.4768,-5.4791,-5.4819,-5.4854,-5.4871,-5.4913,-5.4935,-5.4968,-5.4958,-5.4916,-5.5045,-5.4985,-5.5044,-5.5044,-5.5069,-5.5067,-5.525,-5.5091,-5.509,-5.509,-5.509,0,-5.466,-5.4728,-5.4723,-5.4769,-5.4845,-5.4832,-5.4906,-5.4915,-5.4936,-5.4982,-5.4955,-5.4999,-5.4986,-5.5029,-5.5022,-5.5093,-5.5104,-5.5103,-5.51,-5.5104,-5.5103,-5.5116,-5.5106,-5.5095,-5.5094,-5.5093,-5.5092,0,-5.4794,-5.4794,-5.4874,-5.4895,-5.4902,-5.4956,-5.4974,-5.5017,-5.5019,-5.5078,-5.5091,-5.5093,-5.5143,-5.5138,-5.5193,-5.5189,-5.5275,-5.5264,-5.5266,-5.5262,-5.532,-5.5313,-5.5514,-5.5538,-5.5367,-5.5368,-5.537,0,-5.4882,-5.4934,-5.4961,-5.4991,-5.5007,-5.5055,-5.5083,-5.5073,-5.5103,-5.5138,-5.5176,-5.5224,-5.526,-5.534,-5.5346,-5.5388,-5.5375,-5.5443,-5.5381,-5.5383,-5.5373,-5.5368,-5.5372,-5.5454,-5.5456,-5.5457,-5.5459,0,-5.5038,-5.5035,-5.5077,-5.512,-5.5155,-5.5188,-5.5217,-5.5243,-5.5235,-5.5271,-5.5321,-5.535,-5.5407,-5.5453,-5.5493,-5.5505,-5.548,-5.5479,-5.5494,-5.5496,-5.5494,-5.5493,-5.5296,-5.5473,-5.5472,-5.5471,-5.547,-5.5469,-5.5149,-5.5193,-5.5219,-5.5267,-5.5289,-5.5317,-5.5358,-5.5366,-5.5408,-5.5454,-5.5446,-5.5502,-5.5527,-5.5578,-5.5594,-5.5637,-5.5612,-5.5635,-5.564,-5.5645,-5.565,-5.5491,-5.5645,-5.5644,-5.5644,-5.5644,-5.5643,0,-5.5301,-5.5316,-5.5361,-5.5403,-5.5441,-5.5417,-5.5448,-5.548,-5.5531,-5.5557,-5.5594,-5.5651,-5.5696,-5.5707,-5.5749,-5.5781,-5.5771,-5.5793,-5.5788,-5.5791,-5.5672,-5.5653,-5.58,-5.58,-5.58,-5.58,-5.58,-5.58,-5.5384,-5.5456,-5.5457,-5.5539,-5.5554,-5.5609,-5.5629,-5.5655,-5.5675,-5.5741,-5.5778,-5.5785,-5.5805,-5.5848,-5.5888,-5.589,-5.5905,-5.5931,-5.5928,-5.5816,-5.58,-5.5785,-5.5767,-5.5936,-5.5936,-5.6043,-5.6044,-5.6045]},{"header":{"parameterUnit":"m.s-1","parameterCategory":1,"la1":30.2991,"la2":30.254,"lo1":-89.0895,"lo2":-89.0444,"dy":0.0017,"dx":0.0017,"nx":28,"ny":28,"refTime":"2025-04-19T21:00:00:Z","depth":0,"parameterNumber":3,"parameterNumberName":"V-component_of_WINDS"},"data":[0,0,0,0,0,0,0,0,0,0,0,0,0,0,0,0,0,0,0,0,0,0,0,0,0,0,0,0,0,0,0,0,0,0,0,0,0,0,0,0,0,0,0,0,0,0,0,0,0,0,0,0,0,0,0,0,0,0,3.5693,3.5694,0,3.5731,3.5731,3.5732,3.5702,3.5701,3.57,3.5698,3.5735,3.5737,3.5739,0,0,0,0,0,0,0,0,0,0,0,0,0,3.5596,3.5598,3.5693,3.5694,3.5694,3.5731,3.5731,3.5732,3.5702,3.5701,3.5699,3.5698,3.5734,3.5736,3.5739,0,0,0,0,0,0,0,0,0,0,0,0,0,3.5637,3.5599,3.5693,3.5684,3.5684,3.5731,3.5731,3.5732,3.5703,3.5701,3.5699,3.5697,3.5733,3.5736,3.5739,3.5797,0,0,3.5749,3.5751,0,0,0,0,0,0,0,0,3.5634,3.564,3.5685,3.5685,3.5684,3.571,3.571,3.5754,3.5703,3.5695,3.5698,3.5696,3.5728,3.5731,3.5742,3.5799,3.58,3.5749,3.5751,3.5753,3.5754,0,0,0,0,0,0,0,3.5632,3.5638,3.5708,3.5686,3.5685,3.5678,3.5682,3.5718,3.5722,3.5696,3.5694,3.5699,3.5727,3.5739,3.5743,3.5801,3.5749,3.5752,3.5754,3.5755,3.5908,3.5911,0,0,0,0,0,0,3.563,3.5636,3.5707,3.5709,3.5654,3.5681,3.5685,3.5704,3.5721,3.5722,3.57,3.5697,3.5735,3.5739,3.5744,3.5814,3.5753,3.5756,3.5758,3.5906,3.5909,3.5911,0,0,0,0,0,0,3.5628,3.5636,3.5705,3.5672,3.5681,3.5685,3.5706,3.5705,3.5717,3.5725,3.5725,3.5712,3.5734,3.574,3.5785,3.5815,3.5757,3.576,3.5904,3.5907,3.591,3.5953,0,0,0,0,0,0,3.5625,3.5636,3.5658,3.5673,3.5682,3.5745,3.5707,3.5707,3.5723,3.572,3.5736,3.5737,3.5732,3.578,3.5788,3.5818,3.5763,3.5901,3.5905,3.5909,3.5949,3.5958,3.5965,0,0,0,0,0,3.5622,3.5667,3.5659,3.5667,3.571,3.5747,3.5752,3.5747,3.5726,3.5748,3.5753,3.5736,3.5811,3.5785,3.5793,3.5825,3.5899,3.5904,3.5909,3.5946,3.5956,3.5965,0,0,0,0,0,0,3.5654,3.5669,3.566,3.5711,3.5729,3.5742,3.5769,3.5758,3.5781,3.5776,3.5769,3.5773,3.582,3.5827,3.5798,3.5883,3.5851,3.5858,3.5877,3.5886,3.5894,3.5891,3.5765,0,0,0,0,0,3.5667,3.5697,3.5708,3.5753,3.5762,3.5765,3.5781,3.5776,3.5792,3.5799,3.5807,3.5824,3.5851,3.5869,3.5895,3.5951,3.5954,3.5977,3.5985,3.5991,3.5997,3.6029,3.6039,3.5927,3.5927,3.5927,0,0,3.5694,3.5706,3.5725,3.576,3.5772,3.5803,3.577,3.5804,3.5827,3.5804,3.5847,3.5854,3.5873,3.5924,3.5947,3.5931,3.6029,3.5997,3.6002,3.6005,3.6035,3.6045,3.6055,3.593,3.593,3.5929,0,0,3.576,3.5772,3.5811,3.5825,3.5845,3.5847,3.5857,3.5873,3.5877,3.5921,3.5905,3.5932,3.5979,3.5993,3.6007,3.6081,3.6067,3.609,3.613,3.6161,3.617,3.6178,3.6206,3.6215,3.6096,3.6096,3.6096,0,3.5791,3.5837,3.5832,3.5868,3.5884,3.5867,3.5907,3.5921,3.5948,3.5959,3.5942,3.6002,3.6013,3.6068,3.6087,3.6098,3.6109,3.6087,3.617,3.6177,3.6185,3.6211,3.6221,3.6098,3.6098,3.6098,3.6098,0,3.5875,3.5907,3.5937,3.5965,3.5985,3.6022,3.6024,3.6044,3.6039,3.6043,3.6089,3.6102,3.6131,3.6144,3.6137,3.6199,3.6189,3.6171,3.6138,3.6198,3.6222,3.6232,3.6102,3.6101,3.6101,3.61,0,0,3.5959,3.5987,3.5998,3.6011,3.6033,3.6058,3.6096,3.6126,3.6144,3.6164,3.6196,3.6237,3.6222,3.6237,3.6233,3.626,3.632,3.6239,3.6239,3.6254,3.639,3.6404,3.6415,3.6312,3.6313,3.6315,3.6389,0,3.6026,3.6092,3.6091,3.6152,3.6183,3.6169,3.6202,3.6219,3.6225,3.6252,3.6258,3.6288,3.6264,3.6274,3.63,3.6307,3.6347,3.6302,3.6341,3.6343,3.6337,3.6428,3.6442,3.6511,3.6398,3.64,3.6401,0,3.6112,3.6137,3.6203,3.6223,3.6236,3.6265,3.6293,3.6319,3.634,3.6342,3.6361,3.6353,3.6392,3.636,3.6414,3.6383,3.64,3.6406,3.6408,3.6411,3.6375,3.6434,3.6532,3.6543,3.6416,3.6415,3.6414,0,3.6169,3.6218,3.6264,3.6276,3.6301,3.6322,3.6333,3.6352,3.637,3.6395,3.6407,3.6436,3.6451,3.6474,3.6474,3.6451,3.653,3.6497,3.6533,3.6533,3.6549,3.6548,3.6652,3.656,3.656,3.656,3.6559,0,3.6244,3.6284,3.629,3.6318,3.6364,3.6362,3.6408,3.6417,3.6434,3.6464,3.6453,3.6481,3.648,3.651,3.651,3.6556,3.6563,3.6566,3.6565,3.6567,3.6567,3.6577,3.6572,3.6562,3.6562,3.6561,3.6561,0,3.6313,3.6319,3.6368,3.6388,3.6394,3.6427,3.6444,3.6472,3.6477,3.6516,3.6525,3.6533,3.6567,3.6571,3.6609,3.661,3.6665,3.666,3.6659,3.6658,3.6694,3.669,3.6808,3.6824,3.6721,3.6722,3.6723,0,3.6361,3.6392,3.6416,3.6436,3.6449,3.6481,3.6501,3.6501,3.6522,3.6549,3.6573,3.6607,3.6633,3.6688,3.6698,3.6728,3.6724,3.6763,3.6728,3.6729,3.6725,3.6723,3.6727,3.6769,3.677,3.6771,3.6772,0,3.6444,3.6446,3.6475,3.6506,3.6531,3.6555,3.6577,3.6594,3.6597,3.6622,3.6657,3.6678,3.6719,3.6753,3.6783,3.6794,3.6784,3.6783,3.6793,3.6795,3.6793,3.6795,3.6677,3.678,3.6779,3.6779,3.6778,3.6778,3.6505,3.6533,3.6555,3.6588,3.6606,3.6628,3.6655,3.6665,3.6695,3.6729,3.6728,3.6767,3.6789,3.6829,3.6843,3.6874,3.6861,3.6875,3.6879,3.6882,3.6886,3.6789,3.6879,3.6879,3.6879,3.6879,3.6879,0,3.6589,3.6603,3.6634,3.6667,3.6693,3.6683,3.6708,3.6731,3.6766,3.6788,3.6815,3.6857,3.689,3.6903,3.6936,3.6958,3.6955,3.6967,3.6965,3.6968,3.6896,3.6884,3.697,3.697,3.697,3.6969,3.6969,3.6969,3.6635,3.6683,3.6688,3.6744,3.6758,3.6797,3.6813,3.6834,3.6851,3.6898,3.6926,3.6935,3.6954,3.6989,3.7019,3.7022,3.7035,3.7049,3.705,3.6982,3.6973,3.6964,3.6953,3.7052,3.7052,3.712,3.7121,3.7122]}]]